TimeEST,TemperatureF,Dew PointF,Humidity,Sea Level PressureIn,VisibilityMPH,Wind Direction,Wind SpeedMPH,Gust SpeedMPH,PrecipitationIn,Events,Conditions,WindDirDegrees,DateUTC
12:28 AM,44.6,42.8,93,29.74,5.0,NNW,17.3,23.0,0.00,,Light Drizzle,330,2013-02-14 05:28:00
12:56 AM,44.1,42.1,93,29.78,10.0,NNW,11.5,-,0.00,,Overcast,330,2013-02-14 05:56:00
1:10 AM,44.6,39.2,81,29.77,10.0,NW,15.0,-,N/A,,Overcast,320,2013-02-14 06:10:00
1:56 AM,43.0,39.9,89,29.81,10.0,NNW,12.7,-,N/A,,Overcast,330,2013-02-14 06:56:00
2:22 AM,42.8,39.2,87,29.82,10.0,NW,10.4,-,N/A,,Overcast,320,2013-02-14 07:22:00
2:42 AM,42.8,37.4,81,29.83,10.0,NNW,15.0,20.7,N/A,,Overcast,340,2013-02-14 07:42:00
2:56 AM,42.1,37.9,85,29.84,10.0,NNW,16.1,-,N/A,,Overcast,330,2013-02-14 07:56:00
3:32 AM,41.0,35.6,81,29.85,10.0,NNW,11.5,24.2,N/A,,Overcast,340,2013-02-14 08:32:00
3:56 AM,41.0,35.1,79,29.87,10.0,North,11.5,-,N/A,,Overcast,350,2013-02-14 08:56:00
4:56 AM,39.9,35.1,83,29.90,10.0,NNW,12.7,-,N/A,,Mostly Cloudy,340,2013-02-14 09:56:00
5:56 AM,39.9,35.1,83,29.93,10.0,NNW,10.4,-,N/A,,Mostly Cloudy,340,2013-02-14 10:56:00
6:56 AM,39.9,36.0,86,29.96,10.0,North,10.4,-,N/A,,Overcast,350,2013-02-14 11:56:00
7:56 AM,39.9,36.0,86,29.98,7.0,NNW,6.9,-,N/A,,Scattered Clouds,340,2013-02-14 12:56:00
8:56 AM,43.7,34.0,69,30.01,10.0,North,11.5,-,N/A,,Scattered Clouds,350,2013-02-14 13:56:00
9:56 AM,44.1,33.4,66,30.04,10.0,NNW,5.8,-,N/A,,Mostly Cloudy,340,2013-02-14 14:56:00
10:42 AM,46.4,33.8,62,30.02,10.0,North,12.7,-,N/A,,Mostly Cloudy,350,2013-02-14 15:42:00
10:56 AM,45.0,33.1,63,30.04,10.0,North,10.4,-,N/A,,Mostly Cloudy,360,2013-02-14 15:56:00
11:56 AM,45.0,32.0,60,30.05,10.0,North,6.9,-,N/A,,Mostly Cloudy,360,2013-02-14 16:56:00
12:56 PM,46.0,30.0,54,30.02,10.0,NW,5.8,-,N/A,,Mostly Cloudy,320,2013-02-14 17:56:00
1:56 PM,46.9,28.9,50,30.02,10.0,Calm,Calm,-,N/A,,Mostly Cloudy,0,2013-02-14 18:56:00
2:56 PM,46.0,32.0,58,30.01,10.0,East,8.1,-,N/A,,Mostly Cloudy,90,2013-02-14 19:56:00
3:56 PM,45.0,30.9,58,30.02,10.0,East,4.6,-,N/A,,Mostly Cloudy,90,2013-02-14 20:56:00
4:56 PM,44.1,33.1,65,30.02,10.0,ESE,6.9,-,N/A,,Mostly Cloudy,110,2013-02-14 21:56:00
5:56 PM,42.1,34.0,73,30.03,10.0,SE,6.9,-,N/A,,Mostly Cloudy,130,2013-02-14 22:56:00
6:56 PM,42.1,34.0,73,30.05,10.0,SSE,4.6,-,N/A,,Mostly Cloudy,160,2013-02-14 23:56:00
7:56 PM,41.0,34.0,76,30.05,10.0,Calm,Calm,-,N/A,,Overcast,0,2013-02-15 00:56:00
8:56 PM,39.9,34.0,79,30.09,10.0,SSE,5.8,-,N/A,,Mostly Cloudy,160,2013-02-15 01:56:00
9:56 PM,39.9,34.0,79,30.08,10.0,South,4.6,-,N/A,,Scattered Clouds,170,2013-02-15 02:56:00
10:56 PM,41.0,37.0,86,30.10,10.0,South,5.8,-,N/A,,Partly Cloudy,180,2013-02-15 03:56:00
11:56 PM,39.9,36.0,86,30.08,9.0,Calm,Calm,-,N/A,,Partly Cloudy,0,2013-02-15 04:56:00